TimeAKST,TemperatureF,Dew PointF,Humidity,Sea Level PressureIn,VisibilityMPH,Wind Direction,Wind SpeedMPH,Gust SpeedMPH,PrecipitationIn,Events,Conditions,WindDirDegrees,DateUTC
12:01 AM,37.4,35.6,93,29.61,10.0,ESE,27.6,36.8,0.00,Rain,Light Rain,120,2013-03-07 09:01:00
12:45 AM,37.4,33.8,87,29.57,10.0,ESE,31.1,36.8,0.00,Rain,Light Rain,110,2013-03-07 09:45:00
12:53 AM,37.0,34.0,89,29.57,10.0,ESE,26.5,36.8,0.00,Rain,Light Rain,110,2013-03-07 09:53:00
1:53 AM,37.0,34.0,89,29.52,10.0,ESE,26.5,41.4,0.00,Rain,Light Rain,110,2013-03-07 10:53:00
3:51 AM,35.6,33.8,93,29.40,5.0,East,41.4,51.8,0.00,Rain,Rain,100,2013-03-07 12:51:00
3:53 AM,36.0,33.1,89,29.40,5.0,East,40.3,51.8,0.00,Rain,Rain,100,2013-03-07 12:53:00
4:20 AM,33.8,32.0,93,29.40,1.8,ESE,31.1,48.3,0.03,Snow,Light Snow,110,2013-03-07 13:20:00
4:53 AM,33.1,32.0,96,29.39,1.2,ESE,36.8,44.9,0.08,Snow,Light Snow,110,2013-03-07 13:53:00
5:06 AM,33.8,32.0,93,29.38,1.0,ESE,31.1,43.7,0.01,Snow,Light Snow,110,2013-03-07 14:06:00
5:53 AM,33.1,32.0,96,29.36,1.0,East,28.8,38.0,0.08,Rain-Snow,Light Rain,100,2013-03-07 14:53:00
6:53 AM,33.1,33.1,100,29.33,1.0,East,28.8,38.0,0.06,Rain-Snow,Light Rain,100,2013-03-07 15:53:00
7:41 AM,33.8,32.0,93,29.30,0.5,East,24.2,-,0.09,Fog-Snow,Snow,100,2013-03-07 16:41:00
7:53 AM,33.1,33.1,100,29.30,0.5,East,25.3,-,0.11,Fog-Snow,Snow,100,2013-03-07 16:53:00
8:53 AM,33.1,33.1,100,29.27,0.5,East,26.5,-,0.19,Fog-Snow,Snow,100,2013-03-07 17:53:00
9:11 AM,33.8,33.8,100,29.25,1.0,East,27.6,33.4,0.05,Snow,Light Snow,100,2013-03-07 18:11:00
9:53 AM,35.1,34.0,96,29.23,1.5,East,27.6,33.4,0.15,Rain-Snow,Light Rain,100,2013-03-07 18:53:00
10:53 AM,36.0,35.1,97,29.18,2.0,ESE,23.0,29.9,0.21,Rain,Heavy Rain,120,2013-03-07 19:53:00
11:40 AM,37.4,37.4,100,29.15,1.5,ESE,28.8,33.4,0.08,Rain,Light Rain,120,2013-03-07 20:40:00
11:53 AM,37.9,37.0,97,29.15,1.5,ESE,24.2,33.4,0.09,Rain,Light Rain,120,2013-03-07 20:53:00
12:53 PM,39.0,37.9,96,29.13,2.0,ESE,26.5,34.5,0.04,Rain,Light Rain,120,2013-03-07 21:53:00
1:46 PM,39.2,37.4,93,29.14,3.0,SSE,17.3,29.9,0.02,Rain,Light Rain,150,2013-03-07 22:46:00
1:53 PM,39.9,37.9,93,29.16,3.0,SSE,19.6,28.8,0.03,Rain,Rain,150,2013-03-07 22:53:00
2:06 PM,39.2,35.6,87,29.16,10.0,SSE,20.7,33.4,0.01,Rain,Light Rain,160,2013-03-07 23:06:00
2:14 PM,39.2,33.8,81,29.17,10.0,SSE,16.1,31.1,0.01,,Mostly Cloudy,150,2013-03-07 23:14:00
2:50 PM,37.4,33.8,87,29.19,8.0,SSE,18.4,-,0.01,Rain,Light Rain,160,2013-03-07 23:50:00
2:53 PM,37.9,34.0,86,29.20,8.0,SSE,15.0,24.2,0.01,Rain,Light Rain,150,2013-03-07 23:53:00
3:20 PM,39.2,33.8,81,29.20,10.0,SSE,17.3,25.3,0.01,,Overcast,150,2013-03-08 00:20:00
3:53 PM,39.9,32.0,73,29.21,10.0,SSE,15.0,28.8,0.01,,Overcast,150,2013-03-08 00:53:00
4:53 PM,39.9,32.0,73,29.24,8.0,SE,20.7,26.5,0.00,Rain,Light Rain,140,2013-03-08 01:53:00
5:53 PM,39.0,32.0,76,29.27,10.0,SE,10.4,-,0.00,,Overcast,140,2013-03-08 02:53:00
6:36 PM,39.2,32.0,75,29.28,9.0,SSE,15.0,-,0.00,Rain,Light Rain,150,2013-03-08 03:36:00
6:53 PM,39.0,32.0,76,29.29,7.0,SE,10.4,-,0.00,Rain,Light Rain,140,2013-03-08 03:53:00
7:53 PM,39.0,32.0,76,29.31,10.0,SE,13.8,18.4,0.00,,Overcast,130,2013-03-08 04:53:00
8:53 PM,39.0,30.9,73,29.32,10.0,SE,16.1,23.0,0.00,,Overcast,130,2013-03-08 05:53:00
9:53 PM,39.0,30.9,73,29.33,10.0,SE,15.0,24.2,0.00,Rain,Light Rain,140,2013-03-08 06:53:00
10:53 PM,39.0,30.9,73,29.34,10.0,SE,18.4,27.6,0.01,Rain,Light Ice Pellets,140,2013-03-08 07:53:00
11:53 PM,39.0,30.9,73,29.36,10.0,SSE,19.6,27.6,0.00,Rain,Rain,160,2013-03-08 08:53:00